Impacts METAR Board
IDs:

KLAS - Las Vegas/McCarran I, NV, US

Updated at: 2200 UTC 20 Jun 2019
Potential Impact None Slight Moderate High
Time 20/10Z 20/11Z 20/12Z 20/13Z 20/14Z 20/15Z 20/16Z 20/17Z 20/18Z 20/19Z 20/20Z 20/21Z 20/22Z
Temp87 87 86 85 87 89 92 95 98 100 100 102 103
Dewpt40 44 47 46 46 47 48 46 42 39 37 39 36
Altim29.74 29.74 29.74 29.75 29.76 29.76 29.76 29.74 29.72 29.71 29.69 29.66 29.64
VIS10 10 10 10 10 10 10 10 10 10 10 10 10
CIG-- -- -- -- -- -- -- -- -- -- -- -- --
CoverCLRCLRCLRFEWFEWCLRCLRCLRFEWFEWFEWFEWFEW
FltCatVFRVFRVFRVFRVFRVFRVFRVFRVFRVFRVFRVFRVFR
WX--------------------------
WDir160170170170170170170180200210220190230
WSpd8 7 6 8 7 8 8 12 10 11 17 13 19
WGst-- -- -- -- -- -- 17 20 21 25 27 23 29
Raw hourly METARs
KLAS 200956Z 16008KT 10SM CLR 31/04 A2974 RMK AO2 SLP038 T03060044 $
KLAS 201056Z 17007KT 10SM CLR 31/07 A2974 RMK AO2 SLP039 T03060067 $
KLAS 201156Z 17006KT 10SM CLR 30/08 A2974 RMK AO2 SLP038 T03000083 10344 20300 56001 $
KLAS 201256Z 17008KT 10SM FEW140 29/08 A2975 RMK AO2 SLP040 T02940078 $
KLAS 201356Z 17007KT 10SM FEW140 31/08 A2976 RMK AO2 SLP044 T03060078 $
KLAS 201456Z 17008KT 10SM CLR 32/08 A2976 RMK AO2 SLP046 T03170083 53006 $
KLAS 201556Z 17008G17KT 10SM CLR 33/09 A2976 RMK AO2 SLP044 T03330089 $
KLAS 201656Z 18012G20KT 10SM CLR 35/08 A2974 RMK AO2 SLP037 T03500078 $
KLAS 201756Z 20010G21KT 10SM FEW120 37/06 A2972 RMK AO2 SLP031 T03670056 10367 20294 58013 $
KLAS 201856Z 21011G25KT 10SM FEW120 38/04 A2971 RMK AO2 SLP027 T03780039 $
KLAS 201956Z 22017G27KT 10SM FEW120 38/03 A2969 RMK AO2 PK WND 21027/1951 SLP021 T03780028 $
KLAS 202056Z 19013G23KT 10SM FEW120 39/04 A2966 RMK AO2 PK WND 21028/2020 SLP008 VCBLDU T03890039 58021 $
KLAS 202156Z 23019G29KT 10SM FEW120 39/02 A2964 RMK AO2 PK WND 23029/2154 SLP003 VCBLDU T03940022 $



Page loaded:  22:00 UTC  |   03:00 PM Pacific  |   04:00 PM Mountain  |   05:00 PM Central  |   06:00 PM Eastern

 

ADVISORIES

FORECASTS

FORECASTS

OBSERVATIONS

USER TOOLS

ABOUT US